Location: Lussas
(44.6119°N, 4.4726°E)
Time: 15:27:16
(UTC+00:00)

Genesis I - Pass Details

Date: 26 November 2020
Orbit: 493 x 528 km, 64.5° (Epoch: 27 January)

Event Time Altitude Azimuth Distance (km) Brightness Sun altitude
Rises 06:13:07 0° 224° (SW) 2,568 6.5 -7.3°
Reaches altitude 10° 06:15:17 10° 228° (SW) 1,694 5.6 -6.9°
Maximum altitude 06:19:00 57° 308° (NW) 593 3.2 -6.3°
Drops below altitude 10° 06:22:48 10° 29° (NNE) 1,723 5.9 -5.7°
Sets 06:25:01 0° 33° (NNE) 2,619 6.9 -5.3°
